Tracking 25195 objects as of 21-Jan-2022
HD Live streaming from Space Station
objects crossing your sky now

STARLINK-2283

Track STARLINK-2283 now!
10-day predictions
STARLINK-2283 is classified as:


NORAD ID: 48014
Int'l Code: 2021-024AP
Perigee: 555.3 km
Apogee: 558.4 km
Inclination: 53.1 °
Period: 95.6 minutes
Semi major axis: 6927 km
RCS: Unknown
Launch date: March 24, 2021
Source: United States (US)
Launch site: AIR FORCE EASTERN TEST RANGE (AFETR)
aabbcc
Your satellite tracking list
Your tracking list is empty




NASA's NSSDC Master Catalog

Two Line Element Set (TLE):
1 48014U 21024AP  22020.58334491 -.00021003  00000-0 -14266-2 0  9998
2 48014  53.0521 200.1839 0002198  78.9926 355.2242 15.05579114  3610
Source of the keplerian elements: AFSPC